Location: Unspecified
(0.0000°N, 0.0000°E)
Time: 01:10:27
(UTC+00:00)

RS-15 - Pass Details

Date: 22 February 2026
Orbit: 1894 x 2150 km, 64.8° (Epoch: 7 March)

Event Time Altitude Azimuth Distance (km) Brightness Sun altitude
Rises 20:57:46 0° 183° (S) 5,406 10.5 -40.3°
Reaches altitude 10° 21:01:37 10° 174° (S) 4,372 9.9 -41.3°
Enters shadow 21:05:03 21° 161° (SSE) 3,548 9.3 -42.1°
